sat.trackr.live / text

‹ back to catalog

STARLINK-11194 [DTC]

NORAD 60187 · 2024-124E

PAYLOAD ACTIVE UNKNOWN

§ Identity

Operator
Country
US
Launch date
2024-07-03
Launch site
AFETR
Launch vehicle
Mass (kg)
RCS (m²)

Purposes: comms

External: N2YO · Heavens-Above · Gunter

§ Orbital elements

Epoch: 2026-05-24T23:59:36.117312Z

Period
91.74 min
Inclination
53.1591°
Eccentricity
0.0001138
Mean motion
15.69712754 rev/d
Perigee alt
359.0 km
Apogee alt
360.5 km
Semi-major
6,737.9 km
B*
2.2759e-5
RAAN
144.7668°
Arg perigee
82.6232°
Mean anomaly
277.4915°
Rev number
10,852

§ Raw data

STARLINK-11194 [DTC]1 60187U 24124E   26144.99972358  .00002170  00000+0  22759-4 0  99922 60187  53.1591 144.7668 0001138  82.6232 277.4915 15.69712754108528

JSON: /api/v1/satellites/60187 · /tle

For live sub-satellite position, see the globe view (requires WebGL).

§ Visibility from observer

Set your observer location to see the next 7 days of passes ≥ 10°. The values pass through the URL so the page stays shareable.

No JS? Fill the form by hand. The geolocation button needs JavaScript.